This is the latest recevied weather packets stored in our database for station/object EA7URS-13. If no packets are shown the sender has not sent any weather packets the latest 10 day(s).
| Time | Temp. | Humidity | Pressure | Rain* | Wind** | Luminosity | Snow |
|---|---|---|---|---|---|---|---|
| 1788195858 | 35.56° C | 25% | 1007.5 hPa | 0 mm | - | 122 W/m² | - |
| 1788195557 | 35.56° C | 25% | 1007.5 hPa | 0 mm | - | 122 W/m² | - |
| 1788195255 | 35.56° C | 26% | 1007.5 hPa | 0 mm | - | 147 W/m² | - |
| 1788194954 | 35.56° C | 26% | 1007.5 hPa | 0 mm | - | 147 W/m² | - |
| 1788194653 | 35.56° C | 27% | 1007.5 hPa | 0 mm | - | 179 W/m² | - |
| 1788194352 | 35.56° C | 27% | 1007.5 hPa | 0 mm | - | 179 W/m² | - |
| 1788194051 | 35.56° C | 27% | 1007.8 hPa | 0 mm | - | 206 W/m² | - |
| 1788193750 | 35.56° C | 27% | 1007.8 hPa | 0 mm | - | 206 W/m² | - |
| 1788193449 | 35.56° C | 26% | 1007.7 hPa | 0 mm | - | 229 W/m² | - |
| 1788193148 | 35.56° C | 26% | 1007.7 hPa | 0 mm | - | 229 W/m² | - |
| 1788192847 | 36.11° C | 24% | 1007.7 hPa | 0 mm | - | 255 W/m² | - |
| 1788192545 | 36.11° C | 24% | 1007.7 hPa | 0 mm | - | 255 W/m² | - |
| 1788192244 | 35.56° C | 24% | 1007.9 hPa | 0 mm | - | 208 W/m² | - |
| 1788191943 | 35.56° C | 24% | 1007.9 hPa | 0 mm | - | 208 W/m² | - |
| 1788191642 | 36.11° C | 21% | 1008 hPa | 0 mm | - | 309 W/m² | - |
| 1788191341 | 36.11° C | 21% | 1008 hPa | 0 mm | - | 309 W/m² | - |
| 1788191040 | 35.56° C | 21% | 1007.9 hPa | 0 mm | - | 336 W/m² | - |
| 1788190739 | 35.56° C | 21% | 1007.9 hPa | 0 mm | - | 336 W/m² | - |
| 1788190438 | 35.56° C | 21% | 1008 hPa | 0 mm | - | 365 W/m² | - |
| 1788190137 | 35.56° C | 21% | 1008 hPa | 0 mm | - | 365 W/m² | - |
| 1788189836 | 35.56° C | 23% | 1007.9 hPa | 0 mm | - | 391 W/m² | - |
| 1788189535 | 35.56° C | 23% | 1007.9 hPa | 0 mm | - | 391 W/m² | - |
| 1788189234 | 36.11° C | 22% | 1008 hPa | 0 mm | - | 415 W/m² | - |
| 1788188933 | 36.11° C | 22% | 1008 hPa | 0 mm | - | 415 W/m² | - |
| 1788188632 | 35.56° C | 23% | 1008.1 hPa | 0 mm | - | 440 W/m² | - |
* Rain latest hour (hover to see other rain measurements)
** Current wind speed in m/s (hover to see current wind gust speed)